[[{"header":{"parameterUnit":"m.s-1","parameterCategory":1,"la1":30.2991,"la2":30.254,"lo1":-89.0895,"lo2":-89.0444,"dy":0.0017,"dx":0.0017,"nx":28,"ny":28,"refTime":"2025-11-27T09:00:00:Z","depth":0,"parameterNumber":2,"parameterNumberName":"U-component_of_WINDS"},"data":[0,0,0,0,0,0,0,0,0,0,0,0,0,0,0,0,0,0,0,0,0,0,0,0,0,0,0,0,0,0,0,0,0,0,0,0,0,0,0,0,0,0,0,0,0,0,0,0,0,0,0,0,0,0,0,0,0,0,-6.2998,-6.2999,0,-6.3083,-6.3084,-6.3085,-6.2935,-6.293,-6.2925,-6.292,-6.3005,-6.3012,-6.3019,0,0,0,0,0,0,0,0,0,0,0,0,0,-6.2703,-6.2709,-6.2998,-6.2999,-6.3,-6.3083,-6.3084,-6.3085,-6.2936,-6.2929,-6.2923,-6.2918,-6.3003,-6.3011,-6.3019,0,0,0,0,0,0,0,0,0,0,0,0,0,-6.2814,-6.2711,-6.2998,-6.2936,-6.2931,-6.3083,-6.3084,-6.3086,-6.2937,-6.2929,-6.2922,-6.2915,-6.3,-6.301,-6.3021,-6.3237,0,0,-6.3052,-6.3057,0,0,0,0,0,0,0,0,-6.2808,-6.2825,-6.2944,-6.294,-6.2935,-6.2991,-6.3011,-6.3136,-6.2939,-6.2935,-6.292,-6.2911,-6.3006,-6.3016,-6.3048,-6.324,-6.3244,-6.3053,-6.306,-6.3064,-6.3067,0,0,0,0,0,0,0,-6.28,-6.282,-6.3032,-6.2946,-6.294,-6.2902,-6.291,-6.3034,-6.3012,-6.2934,-6.2924,-6.2936,-6.3002,-6.3039,-6.3049,-6.3245,-6.3053,-6.3062,-6.3069,-6.3073,-6.3615,-6.3623,0,0,0,0,0,0,-6.2801,-6.2815,-6.3029,-6.3034,-6.2852,-6.2914,-6.2922,-6.298,-6.301,-6.3007,-6.2942,-6.2929,-6.3024,-6.3037,-6.3052,-6.3303,-6.3064,-6.3074,-6.308,-6.3607,-6.3617,-6.3626,0,0,0,0,0,0,-6.2795,-6.2821,-6.3025,-6.2922,-6.2945,-6.2927,-6.2994,-6.2986,-6.3022,-6.3016,-6.3011,-6.2983,-6.3019,-6.3037,-6.3191,-6.3304,-6.3079,-6.3088,-6.3598,-6.361,-6.3621,-6.381,0,0,0,0,0,0,-6.2787,-6.282,-6.2903,-6.2925,-6.2951,-6.3165,-6.3001,-6.2993,-6.3041,-6.3023,-6.3053,-6.3051,-6.3014,-6.3176,-6.3201,-6.3314,-6.3096,-6.3587,-6.3603,-6.3617,-6.3793,-6.3827,-6.3856,0,0,0,0,0,-6.2777,-6.2953,-6.2908,-6.2935,-6.3054,-6.3172,-6.3187,-6.3141,-6.305,-6.3132,-6.3128,-6.305,-6.3288,-6.3193,-6.322,-6.3338,-6.358,-6.3599,-6.3616,-6.3779,-6.382,-6.3855,0,0,0,0,0,0,-6.2945,-6.2955,-6.2905,-6.3093,-6.3133,-6.3146,-6.3248,-6.3187,-6.3253,-6.3234,-6.3175,-6.3183,-6.3348,-6.3359,-6.3253,-6.3547,-6.3418,-6.3443,-6.3533,-6.3572,-6.3603,-6.3595,-6.3105,0,0,0,0,0,-6.3004,-6.3099,-6.3103,-6.3269,-6.3291,-6.3267,-6.3317,-6.3278,-6.3317,-6.3332,-6.3339,-6.3379,-6.3462,-6.3518,-6.3595,-6.3795,-6.3798,-6.389,-6.3921,-6.3946,-6.3967,-6.407,-6.411,-6.3686,-6.3686,-6.3685,0,0,-6.3126,-6.3144,-6.3208,-6.3303,-6.3329,-6.3427,-6.3282,-6.3393,-6.3465,-6.3349,-6.3493,-6.3501,-6.3541,-6.3718,-6.3797,-6.3732,-6.4085,-6.397,-6.399,-6.3997,-6.4093,-6.4133,-6.4169,-6.3698,-6.3696,-6.3694,0,0,-6.3399,-6.3424,-6.3562,-6.3591,-6.3633,-6.3615,-6.3649,-6.3672,-6.3672,-6.3817,-6.3731,-6.3815,-6.3961,-6.3992,-6.4027,-6.4311,-6.424,-6.4338,-6.4499,-6.46,-6.4634,-6.4663,-6.476,-6.4796,-6.4359,-6.436,-6.436,0,-6.3545,-6.3691,-6.3641,-6.3758,-6.3801,-6.3701,-6.384,-6.387,-6.3935,-6.3966,-6.3894,-6.4073,-6.4093,-6.4274,-6.4343,-6.4377,-6.4411,-6.4332,-6.4633,-6.4662,-6.4688,-6.4781,-6.4818,-6.4371,-6.437,-6.4368,-6.4367,0,-6.3867,-6.397,-6.4077,-6.4141,-6.4196,-6.4324,-6.4292,-6.4354,-6.4311,-6.4301,-6.4448,-6.447,-6.4547,-6.4588,-6.4548,-6.4764,-6.4722,-6.4643,-6.4512,-6.4741,-6.4826,-6.4862,-6.4387,-6.4383,-6.438,-6.4377,0,0,-6.4246,-6.428,-6.432,-6.4347,-6.4385,-6.4462,-6.4585,-6.4661,-6.4713,-6.4762,-6.486,-6.4986,-6.4912,-6.4952,-6.4914,-6.5004,-6.5223,-6.4913,-6.4913,-6.4966,-6.5457,-6.5514,-6.5556,-6.5177,-6.5184,-6.5189,-6.5452,0,-6.4513,-6.4723,-6.4682,-6.4887,-6.4978,-6.4885,-6.4991,-6.5025,-6.502,-6.5096,-6.5089,-6.5177,-6.5075,-6.5098,-6.5183,-6.5178,-6.532,-6.5159,-6.5266,-6.527,-6.5255,-6.5601,-6.5661,-6.5909,-6.5486,-6.5492,-6.5496,0,-6.4853,-6.4913,-6.5127,-6.5148,-6.5185,-6.5281,-6.5345,-6.5421,-6.5457,-6.5446,-6.5491,-6.5436,-6.5555,-6.5426,-6.5588,-6.548,-6.5521,-6.5526,-6.5534,-6.5539,-6.5394,-6.5611,-6.5987,-6.6023,-6.5549,-6.5544,-6.5541,0,-6.5102,-6.5237,-6.5381,-6.5408,-6.5437,-6.5506,-6.5521,-6.555,-6.5598,-6.5655,-6.5684,-6.5756,-6.5793,-6.5849,-6.5814,-6.5723,-6.5981,-6.5849,-6.5972,-6.5973,-6.6028,-6.6024,-6.6411,-6.6062,-6.6061,-6.6061,-6.606,0,-6.5403,-6.5537,-6.5493,-6.5582,-6.5728,-6.5679,-6.5825,-6.5829,-6.5856,-6.5942,-6.5867,-6.5949,-6.59,-6.5978,-6.5952,-6.6088,-6.6107,-6.61,-6.609,-6.6104,-6.6105,-6.6128,-6.6108,-6.607,-6.6068,-6.6066,-6.6065,0,-6.5705,-6.5682,-6.5832,-6.5848,-6.5855,-6.5961,-6.5973,-6.6055,-6.6044,-6.6154,-6.6177,-6.6159,-6.6247,-6.6219,-6.6314,-6.6296,-6.6468,-6.6439,-6.6456,-6.6447,-6.657,-6.6557,-6.6982,-6.7034,-6.6656,-6.6659,-6.6662,0,-6.5896,-6.5996,-6.6022,-6.6075,-6.6095,-6.6182,-6.6229,-6.6185,-6.6238,-6.6286,-6.6361,-6.6443,-6.6505,-6.6651,-6.6645,-6.6717,-6.6686,-6.683,-6.6696,-6.6706,-6.6683,-6.6676,-6.6684,-6.6856,-6.686,-6.6864,-6.6867,0,-6.6237,-6.622,-6.6292,-6.636,-6.6419,-6.6471,-6.6516,-6.6563,-6.6521,-6.6584,-6.6673,-6.6722,-6.6819,-6.69,-6.6965,-6.6979,-6.6916,-6.691,-6.6941,-6.6954,-6.6958,-6.6953,-6.6524,-6.6899,-6.6896,-6.6893,-6.6892,-6.689,-6.6486,-6.6569,-6.66,-6.6682,-6.6711,-6.6754,-6.6831,-6.6829,-6.6903,-6.6977,-6.6947,-6.7049,-6.7081,-6.7161,-6.7185,-6.7263,-6.7207,-6.7254,-6.7265,-6.7276,-6.729,-6.6949,-6.7275,-6.7274,-6.7273,-6.7273,-6.7272,0,-6.6818,-6.6833,-6.691,-6.6974,-6.7039,-6.6975,-6.7021,-6.7078,-6.7169,-6.7204,-6.7267,-6.7369,-6.7447,-6.7448,-6.752,-6.7583,-6.7555,-6.7603,-6.7595,-6.7599,-6.7338,-6.7301,-6.7623,-6.7623,-6.7623,-6.7623,-6.7623,-6.7623,-6.6999,-6.7135,-6.7123,-6.7272,-6.7286,-6.7385,-6.7416,-6.7455,-6.7483,-6.7599,-6.7663,-6.7664,-6.7685,-6.7758,-6.7827,-6.7825,-6.7853,-6.7911,-6.7898,-6.7653,-6.7618,-6.7584,-6.755,-6.7919,-6.7919,-6.8152,-6.8154,-6.8156]},{"header":{"parameterUnit":"m.s-1","parameterCategory":1,"la1":30.2991,"la2":30.254,"lo1":-89.0895,"lo2":-89.0444,"dy":0.0017,"dx":0.0017,"nx":28,"ny":28,"refTime":"2025-11-27T09:00:00:Z","depth":0,"parameterNumber":3,"parameterNumberName":"V-component_of_WINDS"},"data":[0,0,0,0,0,0,0,0,0,0,0,0,0,0,0,0,0,0,0,0,0,0,0,0,0,0,0,0,0,0,0,0,0,0,0,0,0,0,0,0,0,0,0,0,0,0,0,0,0,0,0,0,0,0,0,0,0,0,-1.7368,-1.7368,0,-1.7394,-1.7394,-1.7395,-1.7403,-1.7403,-1.7402,-1.7402,-1.7429,-1.743,-1.743,0,0,0,0,0,0,0,0,0,0,0,0,0,-1.732,-1.7321,-1.7367,-1.7368,-1.7368,-1.7394,-1.7394,-1.7395,-1.7403,-1.7403,-1.7402,-1.7402,-1.7428,-1.7429,-1.743,0,0,0,0,0,0,0,0,0,0,0,0,0,-1.7343,-1.7321,-1.7367,-1.7375,-1.7376,-1.7394,-1.7394,-1.7395,-1.7403,-1.7403,-1.7402,-1.7402,-1.7428,-1.7429,-1.7431,-1.7442,0,0,-1.7434,-1.7435,0,0,0,0,0,0,0,0,-1.7342,-1.7345,-1.7374,-1.7375,-1.7376,-1.7395,-1.7388,-1.7411,-1.7403,-1.7393,-1.7402,-1.7402,-1.7418,-1.742,-1.7425,-1.7444,-1.7445,-1.7435,-1.7435,-1.7436,-1.7436,0,0,0,0,0,0,0,-1.734,-1.7344,-1.7378,-1.7374,-1.7375,-1.7376,-1.7379,-1.7392,-1.7406,-1.7394,-1.7394,-1.7397,-1.7418,-1.7424,-1.7426,-1.7445,-1.7434,-1.7436,-1.7436,-1.7437,-1.7471,-1.7471,0,0,0,0,0,0,-1.7338,-1.7343,-1.7377,-1.7379,-1.7358,-1.7377,-1.7381,-1.7389,-1.7406,-1.7408,-1.7397,-1.7398,-1.7422,-1.7424,-1.7427,-1.744,-1.7436,-1.7437,-1.7438,-1.7471,-1.7471,-1.7471,0,0,0,0,0,0,-1.7337,-1.7341,-1.7376,-1.7361,-1.7365,-1.7378,-1.7388,-1.739,-1.7395,-1.7409,-1.7411,-1.7401,-1.7422,-1.7425,-1.7438,-1.7441,-1.7438,-1.7439,-1.747,-1.7471,-1.7471,-1.7466,0,0,0,0,0,0,-1.7335,-1.734,-1.7346,-1.7361,-1.7366,-1.7388,-1.7388,-1.739,-1.7398,-1.7398,-1.7413,-1.7415,-1.7422,-1.7436,-1.7439,-1.7442,-1.744,-1.747,-1.7471,-1.7471,-1.7466,-1.7466,-1.7467,0,0,0,0,0,-1.7334,-1.7344,-1.7346,-1.735,-1.7374,-1.7388,-1.7391,-1.7399,-1.7398,-1.7403,-1.7411,-1.7414,-1.744,-1.7437,-1.7441,-1.7444,-1.747,-1.747,-1.7471,-1.7466,-1.7466,-1.7467,0,0,0,0,0,0,-1.733,-1.7346,-1.7349,-1.7365,-1.7375,-1.7389,-1.7396,-1.7399,-1.741,-1.741,-1.7419,-1.7422,-1.7433,-1.744,-1.7437,-1.7455,-1.7455,-1.7456,-1.745,-1.745,-1.745,-1.7448,-1.7441,0,0,0,0,0,-1.7331,-1.7342,-1.7355,-1.7368,-1.7373,-1.7383,-1.739,-1.7395,-1.7405,-1.741,-1.7419,-1.7428,-1.7438,-1.7445,-1.7455,-1.7467,-1.7469,-1.7471,-1.7471,-1.7471,-1.7472,-1.7476,-1.7477,-1.7472,-1.7472,-1.7472,0,0,-1.7333,-1.7343,-1.735,-1.7367,-1.7376,-1.7385,-1.7387,-1.7398,-1.7405,-1.7411,-1.7423,-1.743,-1.7441,-1.7453,-1.7459,-1.7459,-1.7473,-1.7472,-1.7472,-1.7472,-1.7477,-1.7477,-1.7478,-1.7472,-1.7472,-1.7472,0,0,-1.7342,-1.7352,-1.7362,-1.737,-1.7382,-1.7388,-1.739,-1.7404,-1.7408,-1.742,-1.7425,-1.7432,-1.745,-1.7457,-1.7463,-1.747,-1.7473,-1.7473,-1.7474,-1.7478,-1.7478,-1.7478,-1.748,-1.748,-1.7474,-1.7474,-1.7474,0,-1.7343,-1.7359,-1.7367,-1.7377,-1.7383,-1.7389,-1.7398,-1.7405,-1.742,-1.7423,-1.7423,-1.7443,-1.7452,-1.7464,-1.7465,-1.747,-1.7472,-1.7472,-1.7478,-1.7478,-1.7478,-1.7479,-1.748,-1.7474,-1.7474,-1.7474,-1.7474,0,-1.7359,-1.7369,-1.7376,-1.7389,-1.7396,-1.7406,-1.7413,-1.7419,-1.7423,-1.7429,-1.7439,-1.7449,-1.746,-1.7463,-1.7467,-1.7475,-1.7474,-1.7476,-1.7476,-1.7478,-1.748,-1.748,-1.7473,-1.7473,-1.7473,-1.7474,0,0,-1.7368,-1.7383,-1.7385,-1.739,-1.7402,-1.741,-1.7418,-1.7428,-1.7432,-1.7442,-1.7448,-1.7461,-1.7462,-1.7468,-1.7473,-1.7476,-1.7479,-1.7477,-1.7477,-1.7476,-1.7486,-1.7484,-1.7485,-1.7481,-1.7481,-1.7481,-1.7484,0,-1.7377,-1.7394,-1.7399,-1.7412,-1.742,-1.7424,-1.7431,-1.7438,-1.7443,-1.745,-1.7455,-1.7464,-1.7465,-1.7468,-1.7472,-1.7478,-1.7481,-1.7478,-1.7486,-1.7486,-1.7482,-1.7486,-1.7485,-1.7487,-1.7485,-1.7485,-1.7485,0,-1.7391,-1.7399,-1.7412,-1.7421,-1.7424,-1.7431,-1.7439,-1.7446,-1.7453,-1.7457,-1.7462,-1.7466,-1.7473,-1.7472,-1.7482,-1.7479,-1.7482,-1.7485,-1.7486,-1.7487,-1.7486,-1.7486,-1.7489,-1.7489,-1.7486,-1.7486,-1.7486,0,-1.7394,-1.7409,-1.7418,-1.7422,-1.7432,-1.7436,-1.7441,-1.7448,-1.7453,-1.7459,-1.7462,-1.747,-1.7474,-1.7479,-1.7484,-1.7483,-1.7492,-1.7492,-1.7494,-1.7493,-1.7495,-1.7495,-1.7498,-1.7499,-1.7499,-1.7499,-1.7499,0,-1.7404,-1.7412,-1.7419,-1.7425,-1.7432,-1.7438,-1.7445,-1.7449,-1.7455,-1.7461,-1.7464,-1.7469,-1.7476,-1.7481,-1.7485,-1.749,-1.7493,-1.7494,-1.7495,-1.7494,-1.7493,-1.7496,-1.7496,-1.7499,-1.7499,-1.7499,-1.7499,0,-1.7409,-1.7415,-1.7425,-1.7433,-1.7435,-1.744,-1.7446,-1.7451,-1.7455,-1.7462,-1.7464,-1.747,-1.7476,-1.7481,-1.7489,-1.7492,-1.7497,-1.7499,-1.7495,-1.7495,-1.7496,-1.7495,-1.75,-1.75,-1.7501,-1.7501,-1.7501,0,-1.7415,-1.7421,-1.7429,-1.7432,-1.7436,-1.7443,-1.7447,-1.7451,-1.7455,-1.7463,-1.7466,-1.7472,-1.7477,-1.7486,-1.7491,-1.7497,-1.7498,-1.7499,-1.7499,-1.7496,-1.7496,-1.7496,-1.7495,-1.7499,-1.7499,-1.7499,-1.7499,0,-1.7423,-1.7425,-1.7431,-1.7437,-1.7442,-1.7447,-1.7452,-1.7455,-1.746,-1.7464,-1.747,-1.7474,-1.7481,-1.7487,-1.7492,-1.7496,-1.7498,-1.7499,-1.7499,-1.7498,-1.7495,-1.7495,-1.7494,-1.7499,-1.7499,-1.7499,-1.7499,-1.7499,-1.7428,-1.7432,-1.7438,-1.7444,-1.7448,-1.7452,-1.7456,-1.7459,-1.7464,-1.747,-1.7473,-1.7478,-1.7483,-1.749,-1.7494,-1.7497,-1.7497,-1.7499,-1.7499,-1.7499,-1.7498,-1.7494,-1.7498,-1.7498,-1.7498,-1.7498,-1.7498,0,-1.7436,-1.7439,-1.7444,-1.745,-1.7454,-1.7455,-1.746,-1.7463,-1.7468,-1.7472,-1.7476,-1.7482,-1.7486,-1.749,-1.7495,-1.7497,-1.7497,-1.7498,-1.7497,-1.7498,-1.7498,-1.7496,-1.7497,-1.7497,-1.7497,-1.7497,-1.7497,-1.7497,-1.744,-1.7446,-1.7448,-1.7455,-1.7458,-1.7463,-1.7466,-1.7469,-1.7472,-1.7478,-1.7481,-1.7484,-1.7487,-1.7491,-1.7495,-1.7496,-1.7497,-1.7497,-1.7498,-1.7498,-1.7498,-1.7498,-1.7497,-1.7497,-1.7497,-1.7497,-1.7497,-1.7497]}]]